Regional Weather Roundup
Issued by NWS Cleveland, OH

Home | Current Version | Previous Version | Text Only | Print | Product List | Glossary Off
Versions: 1 2 3 4 5 6 7 8 9 10 11 12 13 14 15 16 17 18 19 20 21 22 23 24 25 26 27 28 29 30 31 32 33 34 35 36 37 38 39 40 41 42 43 44 45 46 47 48 49 50

000
ASUS41 KCLE 221012
RWRCLE
OHIO REGIONAL WEATHER ROUNDUP
NATIONAL WEATHER SERVICE WILMINGTON, OH
600 AM EDT TUE AUG 22 2017

NOTE: "FAIR" INDICATES FEW OR NO CLOUDS BELOW 12,000 FEET WITH NO
SIGNIFICANT WEATHER AND/OR OBSTRUCTIONS TO VISIBILITY.

OHZ001>008-015>018-024>027-034-035-043-044-221100-
   NORTHWEST OHIO

CITY           SKY/WX    TMP DP  RH WIND       PRES   REMARKS
DEFIANCE       LGT RAIN  72  68  87 SW5       29.91F
FINDLAY        FAIR      73  67  81 S9        29.91F
TOLEDO EXPRESS FAIR      72  69  90 SW10      29.90R
TOLEDO EXEC    FAIR      74  70  87 W10       29.91R
LIMA           FAIR      74  69  85 S12       29.93F
$$

OHZ009>014-019>023-028>033-038-089-221100-
   NORTHEAST OHIO

CITY           SKY/WX    TMP DP  RH WIND       PRES   REMARKS
CLE-HOPKINS    FAIR      78  67  68 S12       29.94S
CLE-LAKEFRONT  FAIR      76  67  73 S10       29.90F
CUY CO. ARPT   NOT AVBL
LORAIN-ELYRIA  FAIR      72  63  73 SW10      29.92F
ASHTABULA      FAIR      72  70  93 S7        29.95S
AKRON-CANTON   FAIR      75  67  76 SW10      29.98F
WOOSTER        FAIR      72  68  87 SW7       29.97F
MANSFIELD      FAIR      73  68  84 S12       29.97F
YOUNGSTOWN     MOCLDY    73  68  84 S7        29.97F
$$

OHZ042-051>053-060>062-070>072-077>081-221100-
  SOUTHWEST OHIO

CITY           SKY/WX    TMP DP  RH WIND       PRES   REMARKS
CINC-COVINGTON MOCLDY    74  69  85 S9        29.99S
CINC-LUNKEN    FAIR      72  70  93 SW6       29.99S
HAMILTON       FAIR      75  69  81 CALM      29.98F
DAYTON         CLOUDY    75  67  76 SW13      29.98S
WRIGHT-PAT AFB FAIR      75  69  81 S9        29.97S
DAYTON GENERAL FAIR      73  67  81 S8        29.98S
WILMINGTON     FAIR      71  69  93 S8        30.00S
$$

OHZ036-037-039>041-045>050-054>059-063>069-073>076-082>088-221100-
  CENTRAL AND SOUTHEAST OHIO

CITY           SKY/WX    TMP DP  RH WIND       PRES   REMARKS
COLUMBUS       CLOUDY    75  70  84 S7        29.98S
OSU AIRPORT    FAIR      75  70  84 S8        29.97F
BOLTON FIELD   FAIR      72  69  91 S7        29.99S
RICKENBACK AFB FAIR      72  69  90 S9        29.98S
NEWARK         FAIR      74  68  81 S5        29.99R
MARION         FAIR      73  68  84 S9        29.96F
LANCASTER      FAIR      74  68  81 S7        30.00S
ZANESVILLE     FAIR      73  68  84 S7        30.00F
NEW PHILLY     FAIR      71  69  93 SE3       29.99F
$$



USA.gov is the U.S. government's official web portal to all federal, state and local government web resources and services.